Ana Sayfa
METAR-TAF:

METAR-TAF

Havaalanları :

Draughon-Miller Central Texas Regional Airport

Temple, Teksas, Amerika Birleşik Devletleri

Enlem: 31-09N, Boylam: 097-24W, yükseklik: 208 m

Güncel hava durumu gözlemi

Rapor saat 20:51 UTC de 42 dakika önce yapıldı.
Rüzgar güneydoğudan 6 kt
Sıcaklık 17°C
Nem 39%
Basınç 1020 hPa
Görüş mesafesi: 16.1 km
Açık gökyüzü

METAR: KTPL 162051Z AUTO 14006KT 10SM CLR 17/03 A3012 RMK AO2 SLP197 T01720028 56035

Saat: 15:33 (21:33 UTC)


TAF: eksik

4.000'den fazla havaalanı için hava durumu gözlemleri ve tahminleri (METAR ve TAF raporları).

Kullanılabilir istasyonlar harita üzerinde sarı ve kırmızı noktalarla gösterilir.

İstasyonun adını görmek için fareyi noktanın üzerinde gezdirin.

Sonrasında hava gözlem ve tahminlerini görmek için tıklayın.

Haritayı değiştirmek için: yaklaştırmak için siyah artı işaretli yeşil düğmeye ve uzaklaştırmak için de eksi işaretli düğmeye hızla tıklayın; bitişik haritalar için yeşil okları kullanın.


METAR-TAF: